Austin, Texas, United States (73301)
Lat: 30.27N, Lon: 97.74W
Wx Zone: TXZ192
Local Info
Past Weather Observations for Today

NOTE: This archive is for the closest National Weather Service station to Austin. Information may differ from the station used for current weather conditions.

Click here for Long-term Archive

Time Weather Temperature Dewpoint Humidity Pressure Winds Precip Visibility
20:51
Clear
73°F / 23°C 54°F / 12°C 50% 29.77 in
(1008 mb)
N 4.6 mph
(N 7 kph)
- 10SM
19:51
Clear
75°F / 24°C 55°F / 13°C 50% 29.74 in
(1007 mb)
N 3.5 mph
(N 6 kph)
- 10SM
18:51
Partly Cloudy
79°F / 26°C 55°F / 13°C 45% 29.71 in
(1006 mb)
N 4.6 mph
(N 7 kph)
- 10SM
17:51
Clear
82°F / 28°C 52°F / 11°C 35% 29.68 in
(1005 mb)
Variable 4.6 mph
(Variable 7 kph)
- 10SM
16:51
Clear
84°F / 29°C 52°F / 11°C 33% 29.68 in
(1005 mb)
N 6.9 mph
(N 11 kph)
- 10SM
15:51
Clear
84°F / 29°C 55°F / 13°C 37% 29.68 in
(1005 mb)
NW 6.9 mph
(NW 11 kph)
- 10SM
14:51
Clear
82°F / 28°C 61°F / 16°C 48% 29.68 in
(1005 mb)
Variable 6.9 mph
(Variable 11 kph)
- 10SM
13:51
Clear
82°F / 28°C 63°F / 17°C 51% 29.71 in
(1006 mb)
Variable 5.8 mph
(Variable 9 kph)
- 10SM
12:51
Partly Cloudy
79°F / 26°C 63°F / 17°C 58% 29.71 in
(1006 mb)
Calm - 10SM
12:28
Partly Cloudy
77°F / 25°C 63°F / 17°C 61% 29.71 in
(1006 mb)
Variable 5.8 mph
(Variable 9 kph)
- 10SM
12:19
Mostly Cloudy
79°F / 26°C 64°F / 18°C 61% 29.71 in
(1006 mb)
W 5.8 mph
(W 9 kph)
- 10SM
12:01
Partly Cloudy
79°F / 26°C 64°F / 18°C 61% 29.71 in
(1006 mb)
Variable 5.8 mph
(Variable 9 kph)
- 10SM
11:51
Mostly Cloudy
75°F / 24°C 64°F / 18°C 69% 29.71 in
(1006 mb)
Variable 4.6 mph
(Variable 7 kph)
- 10SM
11:22
Partly Cloudy
75°F / 24°C 63°F / 17°C 65% 29.71 in
(1006 mb)
Calm - 10SM
10:51
Mostly Cloudy
75°F / 24°C 63°F / 17°C 65% 29.74 in
(1007 mb)
Calm - 10SM
10:34
Mostly Cloudy
75°F / 24°C 64°F / 18°C 69% 29.71 in
(1006 mb)
Variable 5.8 mph
(Variable 9 kph)
- 10SM
09:51
Partly Cloudy
72°F / 22°C 63°F / 17°C 73% 29.71 in
(1006 mb)
Calm - 10SM
09:32
Partly Cloudy
72°F / 22°C 63°F / 17°C 73% 29.71 in
(1006 mb)
Calm - 10SM
08:51
Overcast
68°F / 20°C 63°F / 17°C 83% 29.71 in
(1006 mb)
Calm - 10SM
08:41
Overcast
68°F / 20°C 64°F / 18°C 88% 29.71 in
(1006 mb)
NW 5.8 mph
(NW 9 kph)
- 10SM
08:10
Overcast
66°F / 19°C 63°F / 17°C 88% 29.71 in
(1006 mb)
NW 5.8 mph
(NW 9 kph)
- 10SM
07:51
Overcast
64°F / 18°C 63°F / 17°C 94% 29.71 in
(1006 mb)
Calm - 10SM
07:27
Overcast
64°F / 18°C 63°F / 17°C 94% 29.71 in
(1006 mb)
NNE 3.5 mph
(NNE 6 kph)
- 10SM
06:51
Overcast
64°F / 18°C 63°F / 17°C 94% 29.68 in
(1005 mb)
Variable 3.5 mph
(Variable 6 kph)
- 10SM
06:48
Overcast
64°F / 18°C 63°F / 17°C 94% 29.68 in
(1005 mb)
Calm - 10SM
06:28
Overcast
64°F / 18°C 63°F / 17°C 94% 29.68 in
(1005 mb)
Variable 4.6 mph
(Variable 7 kph)
- 10SM
05:51
Overcast
64°F / 18°C 63°F / 17°C 94% 29.68 in
(1005 mb)
Calm - 10SM
04:51
Partly Cloudy
63°F / 17°C 63°F / 17°C 100% 29.62 in
(1003 mb)
N 3.5 mph
(N 6 kph)
- 10SM
03:51
Clear
63°F / 17°C 63°F / 17°C 100% 29.62 in
(1003 mb)
Calm - 10SM
02:51
Clear
64°F / 18°C 63°F / 17°C 94% 29.62 in
(1003 mb)
Variable 4.6 mph
(Variable 7 kph)
0.00 in
(0.00 mm)
10SM
01:51
Overcast
Light Rain
66°F / 19°C 61°F / 16°C 83% 29.56 in
(1001 mb)
Variable 5.8 mph
(Variable 9 kph)
0.50 in
(12.70 mm)
9SM
01:18
Overcast
Thunder Storms
64°F / 18°C 61°F / 16°C 88% 29.65 in
(1004 mb)
NW 15 mph
(NW 24 kph)
0.45 in
(11.43 mm)
6SM
01:10
Overcast
Thunder Storms
64°F / 18°C 61°F / 16°C 88% 29.68 in
(1005 mb)
NW 12.7 mph
(NW 20 kph)
0.44 in
(11.18 mm)
2SM
00:57
Overcast
Thunder Storms
64°F / 18°C 63°F / 17°C 94% 29.71 in
(1006 mb)
NW 16.1 mph
(NW 26 kph)
0.18 in
(4.57 mm)
3/4SM
00:51
Overcast
Thunder Storms
66°F / 19°C 64°F / 18°C 94% 29.71 in
(1006 mb)
W 17.3 mph
(W 28 kph)
0.06 in
(1.52 mm)
1SM
00:46
Overcast
Thunder Storms
70°F / 21°C 68°F / 20°C 94% 29.68 in
(1005 mb)
W 13.8 mph
(W 22 kph)
0.02 in
(0.51 mm)
2 1/2SM
00:29
Overcast
Thunder Storms
73°F / 23°C 70°F / 21°C 89% 29.65 in
(1004 mb)
NW 8.1 mph
(NW 13 kph)
0.00 in
(0.00 mm)
3SM
Time Weather Temperature Dewpoint Humidity Pressure Winds Precip Visibility


Weather for websites

WeatherForYou.com, LLC is not responsible for any damages or problems caused by this service. Current weather conditions are obtained from the closest station including government and personal stations which may have varying degrees of accuracy. Weather forecasts are derived from the NOAA NDFD. Like all things, this site belongs to Jesus Christ... He just trusts us to maintain it. If you have any questions or comments email webmaster@weatherforyou.com

Copyright © 2015, WeatherForYou.com LLC. All rights reserved.